Other Public Products
Issued by NWS Charleston, SC

Current Version | Previous Version | Text Only | Print | Product List | Glossary Off
Versions: 1 2 3 4 5 6 7 8 9 10 11 12 13 14 15 16 17 18 19 20 21 22 23 24 25 26 27 28 29 30 31 32 33 34 35 36 37 38 39 40 41 42 43 44 45 46 47 48 49 50

000
FPUS82 KCHS 232127
OPUCHS

TEST...KCHS/KSAV Gateway Observations...TEST
National Weather Service Charleston SC
500 PM EDT SAT SEP 23 2017

NOTE: "fair" indicates few or no clouds below 12,000 feet with no
significant weather and/or obstructions to visibility.

SCZ050-WAZ558-NCZ071-TXZ119-213-PAZ071-DCZ001-FLZ074-172-MI076-
NYZ176-178-MAZ016-IL014-TNZ027-NJZ106-GAZ044-MD014-232200-

...Gateway Observations for Charleston International...

CITY           SKY/WX    TMP DP  RH WIND       PRES   REMARKS
Chas Airport   MOSUNNY   85  65  51 E10       29.98F
Seattle        PTSUNNY   66  51  58 S6        30.10F
Charlotte      MOSUNNY   88  62  41 N9        30.02F
Dallas DFW     PTSUNNY   95  64  35 E10       29.86F HX  97
Dallas Love    MOSUNNY   94  62  34 SE14G20   29.87F HX  94
Philladelphia  MOSUNNY   88  57  34 N9        30.00F
Wash National  MOSUNNY   88  58  36 N8        30.05S
Baltimore      MOSUNNY   87  55  33 NW9       30.03S
Miami          MOSUNNY   89  75  63 VRB6      29.79F HX  99
Detroit        MOSUNNY   90  66  45 VRB5      30.11F HX  92
Newark         SUNNY     89  45  21 N13       29.99S
Laguardia      MOSUNNY   86  50  28 N9        29.99S
J F K          MOSUNNY   87  52  29 N9        30.00S
Boston Logan   MOSUNNY   67  62  84 E7        30.01S
Ft. Lauderdale PTSUNNY   85  77  77 NE15      29.79S HX  95
Chicago O`Hare MOSUNNY   92  64  39 E13       30.03F HX  93
Chicago Midway MOSUNNY   92  66  42 E14       30.03F HX  94
Houston Bush   MOSUNNY   90  68  48 E10       29.87F HX  93
Houston Hobby  MOSUNNY   89  71  55 SE12      29.87F HX  95
Nashville      MOSUNNY   90  65  43 E8        30.00F HX  92
Atlanta        MOSUNNY   86  60  41 SE9       30.01F

$$

GAZ044-118-TXZ119-213-NCZ071-DCZ001-MDZ014-506-PAZ021-071-NJZ106-
NYZ176-178-MAZ106-OHZ011-021-055-MIZ076-KYZ091-ILZ014-INZ047-
MNZ060-ONZ431-232200-

...Gateway Observations for Savannah International...

CITY           SKY/WX    TMP DP  RH WIND       PRES   REMARKS
Savannah Arpt  MOSUNNY   86  69  56 E12       29.97F HX  90
Atlanta        MOSUNNY   86  60  41 SE9       30.01F
Charlotte      MOSUNNY   88  62  41 N9        30.02F
Dallas DFW     PTSUNNY   95  64  35 E10       29.86F HX  97
Houston Bush   MOSUNNY   90  68  48 E10       29.87F HX  93
Wash National  MOSUNNY   88  58  36 N8        30.05S
Wash Dulles    MOSUNNY   86  60  41 N7        30.06S
Baltimore      MOSUNNY   87  55  33 NW9       30.03S
Philadelphia   MOSUNNY   88  57  34 N9        30.00F
Newark         SUNNY     89  45  21 N13       29.99S
Laguardia      MOSUNNY   86  50  28 N9        29.99S
J F K          MOSUNNY   87  52  29 N9        30.00S
Boston         MOSUNNY   67  62  84 E7        30.01S
Pittsburg      MOSUNNY   89  52  28 N8        30.12S
Akron          MOSUNNY   89  57  33 NE9       30.12F
Cleveland      SUNNY     90  50  25 N10       30.13F
Cincinnati     MOSUNNY   90  65  43 N8        30.07F HX  92
Columbus       MOSUNNY   84  58  41 E6        30.08R
Detroit        MOSUNNY   90  66  45 VRB5      30.11F HX  92
Chicago O`Hare MOSUNNY   92  64  39 E13       30.03F HX  93
Minneapolis    PTSUNNY   89  70  53 S13       29.92F HX  94
Indianapolis   MOSUNNY   91  64  40 E7        30.06F HX  92
Toronto Canada MOSUNNY   88  64  45 S7        30.07S

$$




USA.gov is the U.S. government's official web portal to all federal, state and local government web resources and services.